BMCB-18 Weather Reports


time (UTC)temp
C
wind
direction
speed
KPH
gust
KPH
rain 1hr
cm
rain 24hr
cm
rain mn
cm
humidity
%
barometer
mb
20260505194047 10 0 0.0 0.0 0.18 0.38 0.36 10 1010.2
20260505193049 10 0 0.0 0.0 0.15 0.36 0.33 10 1010.1
20260505191050 10 0 0.0 0.0 0.15 0.30 0.28 10 1010.1
20260505190046 10 0 0.0 0.0 0.15 0.28 0.25 10 1010.0
20260505185049 10 0 0.0 0.0 0.15 0.25 0.23 10 1010.0
20260505184050 10 0 0.0 0.0 0.13 0.23 0.23 10 1010.0
20260505182046 10 0 0.0 0.0 0.13 0.20 0.18 10 1010.1
20260505181046 10 0 0.0 0.0 0.10 0.18 0.15 10 1010.1
20260505180045 10 0 0.0 0.0 0.08 0.15 0.15 10 1010.1
20260505175044 10 0 0.0 0.0 0.08 0.15 0.13 10 1010.1
20260505174046 10 0 0.0 0.0 0.05 0.13 0.10 99 1010.1
20260505173048 10 0 0.0 0.0 0.05 0.13 0.10 99 1010.1
20260505172047 10 0 0.0 0.0 0.05 0.10 0.08 99 1010.1
20260505171047 10 0 0.0 0.0 0.03 0.08 0.05 99 1010.1
20260505170046 10 0 0.0 0.0 0.03 0.08 0.05 99 1010.2
20260505165046 10 0 0.0 0.0 0.03 0.10 0.05 99 1010.2
20260505164046 10 0 0.0 0.0 0.00 0.10 0.05 99 1010.2
20260505163049 10 0 0.0 0.0 0.00 0.13 0.05 99 1010.1
20260505161045 10 0 0.0 0.0 0.00 0.13 0.05 99 1010.2
20260505124047 10 0 0.0 0.0 0.00 0.79 0.05 10 1011.1
20260505121047 10 0 0.0 0.0 0.00 0.79 0.05 10 1011.1
20260505115047 10 0 0.0 0.0 0.00 0.79 0.05 10 1011.1
20260505114046 10 0 0.0 0.0 0.00 0.79 0.05 10 1011.2
20260505113048 10 0 0.0 0.0 0.00 0.79 0.05 10 1011.2
20260505090047 10 0 0.0 0.0 0.03 0.79 0.05 10 1011.6
20260505084045 11 0 0.0 0.0 0.03 0.79 0.05 10 1011.6
20260505083044 11 0 0.0 0.0 0.00 0.76 0.03 10 1011.7
20260505082043 11 0 0.0 0.0 0.00 0.76 0.03 10 1011.6
20260505072043 11 0 0.0 0.0 0.00 0.76 0.03 10 1011.6
20260505065043 11 0 0.0 0.0 0.03 0.76 0.03 10 1011.7
20260505063040 11 0 0.0 0.0 0.03 0.76 0.03 10 1011.7
20260505061046 11 0 0.0 0.0 0.03 0.76 0.03 10 1011.7
20260505060041 11 0 0.0 0.0 0.03 0.76 0.03 10 1011.8
20260505055046 11 0 0.0 0.0 0.00 0.74 0.00 10 1011.9
20260505054045 11 0 0.0 0.0 0.00 0.74 0.00 10 1011.9
20260505053042 11 0 0.0 0.0 0.00 0.74 0.00 10 1011.9
20260505051044 11 0 0.0 0.0 0.00 0.74 0.00 10 1011.8
20260505041046 11 0 0.0 0.0 0.00 0.74 0.00 10 1011.8
20260505040043 11 0 0.0 0.0 0.00 0.74 0.00 10 1011.9
20260505035043 10 0 0.0 0.0 0.00 0.74 0.00 10 1011.9
20260505033044 11 0 0.0 0.0 0.00 0.74 0.00 10 1012.1
20260505032046 11 0 0.0 0.0 0.00 0.74 0.00 10 1012.2
20260505031045 11 0 0.0 0.0 0.00 0.74 0.00 10 1012.3
20260505025044 11 0 0.0 0.0 0.00 0.74 0.00 10 1012.4
20260505024044 10 0 0.0 0.0 0.00 0.74 0.00 10 1012.4
20260505023046 10 0 0.0 0.0 0.00 0.74 0.00 10 1012.5
20260505021045 10 0 0.0 0.0 0.00 0.74 0.00 10 1012.5
20260505020048 10 0 0.0 0.0 0.00 0.74 0.00 10 1012.5
20260505012043 11 0 0.0 0.0 0.00 0.74 0.00 10 1012.5
20260505011043 11 0 0.0 0.0 0.00 0.74 0.00 10 1012.5
20260505010042 11 0 0.0 0.0 0.00 0.74 0.00 10 1012.7
20260505005046 11 0 0.0 0.0 0.00 0.74 0.00 10 1012.9
20260505002044 11 0 0.0 0.0 0.00 0.74 0.00 10 1013.2
20260505001045 11 0 0.0 0.0 0.00 0.74 0.00 10 1013.1
20260505000044 11 0 0.0 0.0 0.00 0.74 0.00 10 1013.1
20260504230049 11 0 0.0 0.0 0.00 0.74 0.00 10 1013.6
20260504224047 11 0 0.0 0.0 0.00 0.74 0.00 99 1013.7
20260504221046 12 0 0.0 0.0 0.00 0.74 0.00 99 1014.0
20260504214053 12 0 0.0 0.0 0.03 0.74 0.74 99 1014.2
20260504213050 12 0 0.0 0.0 0.03 0.74 0.74 99 1014.3
20260504212053 12 0 0.0 0.0 0.03 0.74 0.74 99 1014.3
20260504211046 12 0 0.0 0.0 0.03 0.74 0.74 98 1014.3
20260504210049 12 0 0.0 0.0 0.03 0.74 0.74 98 1014.4
20260504204052 12 0 0.0 0.0 0.00 0.71 0.71 98 1014.5
20260504203052 12 0 0.0 0.0 0.00 0.71 0.71 97 1014.5
20260504202054 12 0 0.0 0.0 0.00 0.71 0.71 97 1014.5
20260504201051 12 0 0.0 0.0 0.00 0.71 0.71 97 1014.5
20260504200050 12 0 0.0 0.0 0.00 0.71 0.71 96 1014.5